TimePST,TemperatureF,Dew PointF,Humidity,Sea Level PressureIn,VisibilityMPH,Wind Direction,Wind SpeedMPH,Gust SpeedMPH,PrecipitationIn,Events,Conditions,WindDirDegrees,DateUTC
12:15 AM,39.2,32.0,75,30.17,10.0,Calm,Calm,-,N/A,,Clear,0,2013-02-26 08:15:00
12:35 AM,42.8,33.8,70,30.18,10.0,Calm,Calm,-,N/A,,Clear,0,2013-02-26 08:35:00
12:55 AM,39.2,30.2,70,30.17,10.0,Calm,Calm,-,N/A,,Clear,0,2013-02-26 08:55:00
1:15 AM,39.2,30.2,70,30.17,10.0,Calm,Calm,-,N/A,,Clear,0,2013-02-26 09:15:00
1:35 AM,39.2,32.0,75,30.17,10.0,ESE,5.8,-,N/A,,Clear,110,2013-02-26 09:35:00
1:55 AM,39.2,30.2,70,30.16,10.0,Calm,Calm,-,N/A,,Clear,0,2013-02-26 09:55:00
2:15 AM,39.2,30.2,70,30.16,10.0,SW,3.5,-,N/A,,Clear,220,2013-02-26 10:15:00
2:35 AM,39.2,32.0,75,30.16,10.0,Calm,Calm,-,N/A,,Clear,0,2013-02-26 10:35:00
2:55 AM,39.2,32.0,75,30.15,10.0,WSW,3.5,-,N/A,,Clear,250,2013-02-26 10:55:00
3:15 AM,37.4,30.2,75,30.15,8.0,ENE,3.5,-,N/A,,Clear,70,2013-02-26 11:15:00
3:35 AM,37.4,32.0,81,30.15,8.0,East,3.5,-,N/A,,Clear,90,2013-02-26 11:35:00
3:55 AM,37.4,32.0,81,30.15,10.0,Calm,Calm,-,N/A,,Clear,0,2013-02-26 11:55:00
4:15 AM,35.6,28.4,75,30.15,7.0,ESE,3.5,-,N/A,,Clear,120,2013-02-26 12:15:00
4:35 AM,35.6,30.2,81,30.15,9.0,SSE,4.6,-,N/A,,Clear,150,2013-02-26 12:35:00
4:55 AM,35.6,30.2,81,30.15,9.0,Calm,Calm,-,N/A,,Clear,0,2013-02-26 12:55:00
5:15 AM,37.4,30.2,75,30.15,10.0,ESE,4.6,-,N/A,,Clear,110,2013-02-26 13:15:00
5:35 AM,33.8,26.6,75,30.15,8.0,SSE,3.5,-,N/A,,Clear,150,2013-02-26 13:35:00
5:55 AM,35.6,30.2,81,30.15,8.0,SE,4.6,-,N/A,,Clear,140,2013-02-26 13:55:00
6:15 AM,35.6,30.2,81,30.16,7.0,SE,3.5,-,N/A,,Clear,140,2013-02-26 14:15:00
6:35 AM,35.6,30.2,81,30.16,6.0,ESE,4.6,-,N/A,,Clear,120,2013-02-26 14:35:00
6:55 AM,35.6,28.4,75,30.17,5.0,ESE,5.8,-,N/A,,Clear,120,2013-02-26 14:55:00
7:15 AM,35.6,30.2,81,30.18,8.0,ESE,3.5,-,N/A,,Clear,120,2013-02-26 15:15:00
7:35 AM,37.4,30.2,75,30.18,8.0,ESE,4.6,-,N/A,,Clear,120,2013-02-26 15:35:00
7:55 AM,39.2,33.8,81,30.18,8.0,SE,4.6,-,N/A,,Clear,130,2013-02-26 15:55:00
8:15 AM,39.2,33.8,81,30.19,8.0,SSE,4.6,-,N/A,,Clear,150,2013-02-26 16:15:00
8:35 AM,41.0,35.6,81,30.19,8.0,South,4.6,-,N/A,,Clear,180,2013-02-26 16:35:00
8:55 AM,42.8,35.6,76,30.20,9.0,SE,3.5,-,N/A,,Clear,140,2013-02-26 16:55:00
9:15 AM,44.6,37.4,76,30.20,10.0,SSE,4.6,-,N/A,,Clear,160,2013-02-26 17:15:00
9:35 AM,46.4,37.4,71,30.20,10.0,South,6.9,-,N/A,,Clear,180,2013-02-26 17:35:00
10:15 AM,46.4,37.4,71,30.20,10.0,South,4.6,-,N/A,,Clear,190,2013-02-26 18:15:00
10:35 AM,48.2,37.4,66,30.20,10.0,SE,6.9,-,N/A,,Clear,140,2013-02-26 18:35:00
10:55 AM,51.8,39.2,62,30.19,10.0,SSE,5.8,-,N/A,,Clear,150,2013-02-26 18:55:00
11:15 AM,51.8,39.2,62,30.19,9.0,SSE,5.8,-,N/A,,Clear,160,2013-02-26 19:15:00
11:35 AM,53.6,39.2,58,30.19,10.0,South,8.1,-,N/A,,Clear,180,2013-02-26 19:35:00
11:55 AM,55.4,39.2,54,30.19,10.0,South,6.9,-,N/A,,Clear,180,2013-02-26 19:55:00
12:15 PM,55.4,39.2,54,30.18,10.0,SSW,5.8,-,N/A,,Clear,200,2013-02-26 20:15:00
12:35 PM,57.2,37.4,48,30.18,10.0,SSE,4.6,-,N/A,,Clear,160,2013-02-26 20:35:00
12:55 PM,57.2,37.4,48,30.16,10.0,SSE,5.8,-,N/A,,Clear,160,2013-02-26 20:55:00
1:15 PM,57.2,39.2,51,30.15,10.0,South,6.9,-,N/A,,Clear,170,2013-02-26 21:15:00
1:35 PM,57.2,39.2,51,30.15,10.0,SSW,4.6,-,N/A,,Clear,210,2013-02-26 21:35:00
1:55 PM,59.0,39.2,48,30.15,10.0,WSW,5.8,-,N/A,,Clear,240,2013-02-26 21:55:00
2:15 PM,59.0,39.2,48,30.15,10.0,SSW,4.6,-,N/A,,Clear,210,2013-02-26 22:15:00
2:35 PM,59.0,37.4,45,30.14,10.0,South,4.6,-,N/A,,Clear,190,2013-02-26 22:35:00
2:55 PM,59.0,37.4,45,30.14,10.0,Calm,Calm,-,N/A,,Clear,0,2013-02-26 22:55:00
3:15 PM,60.8,39.2,45,30.13,10.0,West,4.6,-,N/A,,Clear,260,2013-02-26 23:15:00
3:35 PM,60.8,39.2,45,30.13,10.0,West,5.8,-,N/A,,Clear,270,2013-02-26 23:35:00
3:55 PM,60.8,37.4,42,30.13,10.0,West,5.8,-,N/A,,Clear,270,2013-02-26 23:55:00
4:15 PM,60.8,37.4,42,30.13,10.0,West,4.6,-,N/A,,Clear,260,2013-02-27 00:15:00
4:35 PM,60.8,37.4,42,30.13,10.0,West,4.6,-,N/A,,Clear,280,2013-02-27 00:35:00
4:55 PM,60.8,37.4,42,30.13,10.0,West,4.6,-,N/A,,Clear,270,2013-02-27 00:55:00
5:15 PM,60.8,39.2,45,30.13,10.0,West,3.5,-,N/A,,Clear,280,2013-02-27 01:15:00
5:35 PM,59.0,39.2,48,30.14,10.0,WNW,3.5,-,N/A,,Clear,290,2013-02-27 01:35:00
5:55 PM,57.2,39.2,51,30.14,10.0,WNW,3.5,-,N/A,,Clear,290,2013-02-27 01:55:00
6:15 PM,55.4,39.2,54,30.15,10.0,WNW,4.6,-,N/A,,Clear,290,2013-02-27 02:15:00
6:35 PM,53.6,39.2,58,30.15,10.0,WNW,3.5,-,N/A,,Clear,300,2013-02-27 02:35:00
6:55 PM,53.6,37.4,54,30.16,10.0,WNW,4.6,-,N/A,,Clear,300,2013-02-27 02:55:00
7:15 PM,51.8,37.4,58,30.16,10.0,NW,5.8,-,N/A,,Clear,310,2013-02-27 03:15:00
7:35 PM,51.8,37.4,58,30.16,10.0,Calm,Calm,-,N/A,,Clear,0,2013-02-27 03:35:00
7:55 PM,51.8,39.2,62,30.18,10.0,Calm,Calm,-,N/A,,Clear,0,2013-02-27 03:55:00
8:15 PM,50.0,37.4,62,30.18,10.0,Calm,Calm,-,N/A,,Clear,0,2013-02-27 04:15:00
8:55 PM,48.2,37.4,66,30.19,10.0,NW,5.8,-,N/A,,Clear,320,2013-02-27 04:55:00
9:15 PM,48.2,37.4,66,30.20,10.0,NNW,5.8,-,N/A,,Clear,330,2013-02-27 05:15:00
9:35 PM,48.2,37.4,66,30.20,10.0,Calm,Calm,-,N/A,,Clear,0,2013-02-27 05:35:00
9:55 PM,46.4,37.4,71,30.20,10.0,Calm,Calm,-,N/A,,Clear,0,2013-02-27 05:55:00
10:15 PM,46.4,37.4,71,30.21,10.0,Calm,Calm,-,N/A,,Clear,0,2013-02-27 06:15:00
10:35 PM,44.6,35.6,71,30.21,10.0,East,6.9,-,N/A,,Clear,100,2013-02-27 06:35:00
10:55 PM,44.6,37.4,76,30.22,10.0,Calm,Calm,-,N/A,,Clear,0,2013-02-27 06:55:00
11:15 PM,44.6,37.4,76,30.23,10.0,East,4.6,-,N/A,,Clear,100,2013-02-27 07:15:00
11:35 PM,44.6,35.6,71,30.22,10.0,ESE,5.8,-,N/A,,Clear,110,2013-02-27 07:35:00
11:55 PM,44.6,37.4,76,30.22,10.0,ESE,6.9,-,N/A,,Clear,110,2013-02-27 07:55:00